Copper Harbor, MI

2:12 AM EDT on August 22, 2017 (GMT -0400)
Copper Harbor

Weather History for KP59 - March, 2013

Change the Weather History Date:

Wednesday, March 27, 2013

  Actual Average Record
Temperature  
Mean Temperature 33 °F -  
Max Temperature 37 °F 35 °F 52 °F (1999)
Min Temperature 30 °F 24 °F 3 °F (2015)
Degree Days  
Heating Degree Days 32    
Moisture  
Dew Point 24 °F    
Average Humidity 69    
Maximum Humidity 89    
Minimum Humidity 50    
Precipitation  
Precipitation 0.00 in - - ()
Sea Level Pressure  
Sea Level Pressure 30.26 in    
Wind  
Wind Speed 12 mph (North)    
Max Wind Speed 18 mph    
Max Gust Speed 22 mph    
Averages and records for this station are not official NWS values.
T = Trace of Precipitation, MM = Missing Value Source: NWS Daily Summary

Daily Weather History Graph

Daily Weather History Graph

Search for Another Location

Airport or City:

Trip Planner

Search our weather history database for the weather conditions in past years. The results will help you decide how hot, cold, wet, or windy it might be!

Date:

Astronomy

Mar. 27, 2013 Rise Set
Actual Time 7:39 AM EDT 8:14 PM EDT
Civil Twilight 7:09 AM EDT 8:45 PM EDT
Nautical Twilight 6:32 AM EDT 9:22 PM EDT
Astronomical Twilight 5:54 AM EDT 10:00 PM EDT
Moon 9:04 PM EDT (3/27) 7:27 AM EDT (3/27)
Length of Visible Light 13h 36m
Length of Day
12h 34m
Full, 100% of the Moon is Illuminated
Mar 27
Full
Apr 3
Last Quarter
Apr 10
New
Apr 18
First Quarter
Apr 25
Full

Hourly Weather History & Observations

Time (EDT) Temp. Windchill Dew Point Humidity Pressure Visibility Wind Dir Wind Speed Gust Speed Precip Events Conditions
12:51 AM 30.9 °F 22.8 °F 28.0 °F 89% 30.24 in - North 9.2 mph - N/A   Unknown
1:51 AM 32.0 °F 24.2 °F 27.0 °F 82% 30.23 in - NNW 9.2 mph - N/A   Unknown
2:51 AM 32.0 °F 26.4 °F 26.1 °F 79% 30.23 in - NNW 5.8 mph - N/A   Unknown
3:51 AM 32.0 °F 24.2 °F 26.1 °F 79% 30.22 in - North 9.2 mph - N/A   Unknown
4:51 AM 32.0 °F 22.5 °F 27.0 °F 82% 30.23 in - North 12.7 mph - N/A   Unknown
5:51 AM 33.1 °F 23.0 °F 27.0 °F 78% 30.23 in - NNE 15.0 mph - N/A   Unknown
6:51 AM 32.0 °F 22.5 °F 27.0 °F 82% 30.24 in - NNE 12.7 mph - N/A   Unknown
7:51 AM 32.0 °F 21.6 °F 27.0 °F 82% 30.25 in - NNE 15.0 mph - N/A   Unknown
8:51 AM 33.1 °F 22.6 °F 26.1 °F 75% 30.26 in - NNE 16.1 mph - N/A   Unknown
9:51 AM 33.1 °F 23.0 °F 26.1 °F 75% 30.27 in - North 15.0 mph - N/A   Unknown
10:51 AM 33.1 °F 22.6 °F 26.1 °F 75% 30.27 in - North 16.1 mph - N/A   Unknown
11:51 AM 34.0 °F 23.0 °F 24.1 °F 67% 30.28 in - North 18.4 mph - N/A   Unknown
12:51 PM 33.1 °F 22.2 °F 24.1 °F 70% 30.28 in - NNE 17.3 mph - N/A   Unknown
1:51 PM 33.1 °F 22.6 °F 23.0 °F 66% 30.29 in - NNE 16.1 mph - N/A   Unknown
2:51 PM 34.0 °F 24.2 °F 21.9 °F 61% 30.29 in - North 15.0 mph - N/A   Unknown
3:51 PM 34.0 °F 25.0 °F 23.0 °F 64% 30.28 in - North 12.7 mph - N/A   Unknown
4:51 PM 35.1 °F 25.2 °F 21.9 °F 59% 30.27 in - NNW 16.1 mph 21.9 mph N/A   Unknown
5:51 PM 36.0 °F 26.7 °F 19.9 °F 52% 30.27 in - North 15.0 mph - N/A   Unknown
6:51 PM 36.0 °F 27.5 °F 19.0 °F 50% 30.27 in - NNW 12.7 mph 20.7 mph N/A   Unknown
7:51 PM 34.0 °F 26.6 °F 19.9 °F 56% 30.28 in - NNW 9.2 mph 19.6 mph N/A   Unknown
8:51 PM 33.1 °F 24.4 °F 19.0 °F 56% 30.27 in - NNW 11.5 mph 19.6 mph N/A   Unknown
9:51 PM 33.1 °F 23.4 °F 21.0 °F 61% 30.28 in - NNW 13.8 mph 20.7 mph N/A   Unknown
10:51 PM 33.1 °F 23.9 °F 21.0 °F 61% 30.27 in - NNW 12.7 mph 20.7 mph N/A   Unknown
11:51 PM 33.1 °F 24.4 °F 21.9 °F 64% 30.27 in - NNW 11.5 mph 19.6 mph N/A   Unknown